Home   Weather   Santos   Past weeks

Flag for Brazil Past Weather in Santos, São Paulo, Brazil — Yesterday and Last 2 Weeks

Now
77 °F

Scattered clouds.


Feels Like: 79 °F
Forecast: 69 / 83 °F
Wind: 16 mph from South

Location: Sao Paulo Airport

Current Time: Dec 4, 2016 at 4:34:08 pm

Latest Report: Dec 4, 2016 at 4:00 pm


Visibility: N/A

Pressure: 29.74 "Hg

Humidity: 61%

Dew Point: 63 °F

Location of SantosLocation

Past Weather in Santos — Graph

°F

Santos Temperature Yesterday

Maximum temperature yesterday: 84 °F (at 1:00 pm)
Minimum temperature yesterday: 66 °F (at 12:00 am)
Average temperature yesterday: 73 °F

High & Low Weather Summary for the Past Weeks

 TemperatureHumidityPressure
High86 °F (Nov 27, 2:00 pm)94% (Nov 23, 11:00 pm)30.24 "Hg (Nov 23, 11:00 pm)
Low54 °F (Nov 20, 6:00 am)33% (Nov 21, 8:00 pm)29.74 "Hg (Dec 4, 5:00 am)
Average69 °F73%30.06 "Hg
* Reported Nov 19 3:00 pm — Dec 4 3:00 pm, Santos, Weather by CustomWeather, © 2016

Note: Actual official high and low records may vary slightly from our data, if they occured in-between our weather recording intervals... More about our weather records

Advertising

Santos Weather History for the Previous 24 Hours

Scroll right to see more
 ConditionsComfort  
Time TempWeatherWind HumidityBarometerVisibility
3:00 pm
Sun, Dec 4
84 °FScattered clouds.14 mph37%29.74 "HgN/A
2:00 pm82 °FPartly sunny.16 mph40%29.77 "HgN/A
1:00 pm81 °FPartly sunny.15 mph48%29.80 "HgN/A
12:00 pm79 °FScattered clouds.13 mph54%29.83 "HgN/A
11:00 am75 °FPartly sunny.13 mph65%29.83 "HgN/A
10:00 am73 °FPartly sunny.14 mph69%29.83 "HgN/A
9:00 am72 °FPartly sunny.16 mph73%29.80 "HgN/A
8:00 am70 °FPartly sunny.15 mph83%29.80 "HgN/A
7:00 am70 °FPartly sunny.15 mph78%29.77 "HgN/A
6:00 am70 °FPassing clouds.17 mph83%29.74 "Hg5 mi
5:00 am70 °FMostly cloudy.13 mph83%29.74 "Hg4 mi
1:00 am68 °FPassing clouds.10 mph83%29.86 "Hg4 mi
12:00 am68 °FPassing clouds.9 mph83%29.89 "Hg4 mi
11:00 pm
Sat, Dec 3
68 °FPassing clouds.14 mph83%29.86 "HgN/A
10:00 pm70 °FPassing clouds.13 mph78%29.86 "HgN/A
9:00 pm68 °FLight rain. Partly cloudy.10 mph83%29.86 "Hg5 mi
8:00 pm68 °FLight rain. Partly cloudy.13 mph83%29.86 "Hg5 mi
7:00 pm70 °FRain. Mostly cloudy.14 mphN/AN/A3 mi
6:00 pm70 °FLight rain. Partly sunny.7 mph83%N/A5 mi
5:00 pm68 °FThunderstorms. Mostly cloudy.13 mph88%29.83 "Hg3 mi
4:00 pm82 °FThundershowers. Scattered clouds.14 mph55%29.86 "HgN/A
Weather by CustomWeather, © 2016

See weather overviewHow to use our weather pages